To modify the report, make a selection from each column below and re-run.

Report Type Graduation Filter Grade Filter Gender

(Grade filter for indiv report.)


Course PR Report: Laguna Hills HS

The report below currently displays:

  • Individual PR's
  • Grads & Current Runners
  • All Grades
  • Girls
  • 3 miles
  • Grads & Current Runners
All Time Rank Runner Name Grad Year Time Pace PR Date PR Event # of
Races
Graph full race
history on course
(pick up to 15)
1 Emily Leeb 2019 19:48 6:36 9/10/16 Laguna Hills Invitational 2
2 Allie Poor 2023 20:15 6:45 9/14/19 Laguna Hills Invitational 2
3 Audrey Simpson 2019 21:00 7:00 9/9/17 Laguna Hills Invitational 2
4 Alexandria Brady 2018 21:01 7:00 9/10/16 Laguna Hills Invitational 2
5 My Ly 2019 21:02 7:01 9/10/16 Laguna Hills Invitational 2
6 Ava Scarberry 2022 21:08.7 7:03 9/14/19 Laguna Hills Invitational 2
7 Charisa Dorn 2015 21:13 7:04 9/14/13 Laguna Hills Invitational 1
8 Soemy Garcia 2016 21:18 7:06 9/14/13 Laguna Hills Invitational 2
9 Briana Fieffer 2020 22:01 7:20 9/9/17 Laguna Hills Invitational 3
10 Brooke Gann 2015 22:06 7:22 9/14/13 Laguna Hills Invitational 1
11 Regan Heredia 2021 22:12 7:24 9/9/17 Laguna Hills Invitational 2
12 Hannah Jensen 2022 22:20.1 7:27 9/14/19 Laguna Hills Invitational 1
13 Jasmine Alvarez 2017 22:28 7:29 9/10/16 Laguna Hills Invitational 2
13 Savina Corzano 2016 22:28 7:29 9/13/14 Laguna Hills Invitational 2
15 Abigail Delight 2025 22:29.5 7:30 9/11/21 Laguna Hills Invitational 1
16 Melissa Bouakeo 2017 22:45 7:35 9/13/14 Laguna Hills Invitational 2
17 Joanna Hwang 2018 22:48 7:36 9/9/17 Laguna Hills Invitational 2
18 Courtney Melancon 2025 23:03.2 7:41 9/11/21 Laguna Hills Invitational 1
19 Taylor Brobst 2019 23:05 7:42 9/10/16 Laguna Hills Invitational 1
19 Karissa Sugita 2019 23:05 7:42 9/9/17 Laguna Hills Invitational 2
21 Lupe Mata 2024 23:05.2 7:42 9/11/21 Laguna Hills Invitational 1
22 Sophia Cruz 2023 23:16.4 7:45 9/11/21 Laguna Hills Invitational 2
23 Claire Leeb 2021 23:32.7 7:51 9/14/19 Laguna Hills Invitational 2
24 Esmeralda Salcido 2022 23:41.3 7:54 9/14/19 Laguna Hills Invitational 1
25 Lucy Hendriks 2025 23:42.2 7:54 9/11/21 Laguna Hills Invitational 1
26 Pamela Copley 2014 23:53 7:58 9/14/13 Laguna Hills Invitational 1
27 Geneve Lopez 2023 24:12.2 8:04 9/14/19 Laguna Hills Invitational 1
28 Sandra Vu 2021 24:13.5 8:04 9/14/19 Laguna Hills Invitational 2
29 Brittney Gann 2015 24:25 8:08 9/14/13 Laguna Hills Invitational 1
30 Jocelyn Corona 2024 24:30.8 8:10 9/11/21 Laguna Hills Invitational 1
31 Erika Nguyen 2016 24:32 8:11 9/14/13 Laguna Hills Invitational 2
32 Taylor Perez 2019 24:39 8:13 9/9/17 Laguna Hills Invitational 2
33 Sabrina Gutierrez 2023 24:44.3 8:15 9/11/21 Laguna Hills Invitational 1
34 autumn long 2024 24:46.3 8:15 9/11/21 Laguna Hills Invitational 1
35 Samantha Polk 2022 24:50.2 8:17 9/14/19 Laguna Hills Invitational 1
36 Kayla Turay 2018 24:51 8:17 9/9/17 Laguna Hills Invitational 2
37 Lacey Schlarmann 2021 24:52.8 8:18 9/14/19 Laguna Hills Invitational 2
38 Cadence Koenke 2024 24:56.9 8:19 9/11/21 Laguna Hills Invitational 1
39 Marissa Keesey 2018 25:21 8:27 9/13/14 Laguna Hills Invitational 1
40 Kimberly Marquez 2018 25:24 8:28 9/13/14 Laguna Hills Invitational 1
41 Nikala Andreasen 2015 25:28 8:29 9/14/13 Laguna Hills Invitational 1
42 Kaitlin Oberle 2021 25:30.2 8:30 9/14/19 Laguna Hills Invitational 2
43 Sara Hurley 2018 25:49 8:36 9/9/17 Laguna Hills Invitational 2
44 Alyssa Bacilio 2025 26:05.5 8:42 9/11/21 Laguna Hills Invitational 1
45 Alexandra Saati 2016 26:21 8:47 9/14/13 Laguna Hills Invitational 1
46 Lauren Tang 2018 26:22 8:47 9/13/14 Laguna Hills Invitational 1
47 Riley Clausi 2025 26:22.4 8:47 9/11/21 Laguna Hills Invitational 1
48 Samantha Skinner 2023 26:33.6 8:51 9/14/19 Laguna Hills Invitational 1
49 Kayla Yesenosky 2024 26:36.7 8:52 9/11/21 Laguna Hills Invitational 1
50 Renee Puisis 2023 26:38.3 8:53 9/14/19 Laguna Hills Invitational 1
51 Mia Wong 2025 26:39.4 8:53 9/11/21 Laguna Hills Invitational 1
52 Alyssa VanWormer 2023 26:40.1 8:53 9/14/19 Laguna Hills Invitational 2
53 samantha aguilar 2024 26:40.4 8:53 9/11/21 Laguna Hills Invitational 1
54 Eunice Kahng 2014 26:41 8:54 9/14/13 Laguna Hills Invitational 1
55 Taylor Herrick 2025 26:42.5 8:54 9/11/21 Laguna Hills Invitational 1
56 Erin Jow 2021 26:53.8 8:58 9/14/19 Laguna Hills Invitational 1
57 Anissa Tejeda 2014 27:08 9:03 9/14/13 Laguna Hills Invitational 1
58 Viet Quyen Pham 2017 27:25 9:08 9/13/14 Laguna Hills Invitational 1
59 Brooke Tebbe 2014 27:39 9:13 9/14/13 Laguna Hills Invitational 1
60 Carolina Meza 2023 27:41.5 9:14 9/11/21 Laguna Hills Invitational 1
61 Mikiela Garcia-Halbig 2021 27:53 9:18 9/9/17 Laguna Hills Invitational 1
62 Karen Tran 2022 28:13.1 9:24 9/14/19 Laguna Hills Invitational 1
63 Kelalani Luong-kha 2018 28:15 9:25 9/13/14 Laguna Hills Invitational 1
64 Celest Romero 2022 28:24.8 9:28 9/14/19 Laguna Hills Invitational 1
65 Julia Friese 2018 28:25 9:28 9/13/14 Laguna Hills Invitational 1
66 Amy Nguyen 2018 28:33 9:31 9/10/16 Laguna Hills Invitational 1
67 Rachel Wilkerson 2023 28:47 9:36 9/11/21 Laguna Hills Invitational 1
68 Elena Hernandez 2021 28:50.4 9:37 9/14/19 Laguna Hills Invitational 1
69 Michelle Gutierrez 2021 28:53 9:38 9/9/17 Laguna Hills Invitational 1
70 Tiffany Dao 2017 29:08 9:43 9/13/14 Laguna Hills Invitational 1
71 Tiffany Avendano 2017 29:10 9:43 9/13/14 Laguna Hills Invitational 1
72 Natalie Bonilla 2023 29:44.5 9:55 9/14/19 Laguna Hills Invitational 2
73 Bailey Hicken 2018 29:47 9:56 9/10/16 Laguna Hills Invitational 1
74 Mercedes Floyd 2016 30:00 10:00 9/13/14 Laguna Hills Invitational 1
75 Breann Dolan 2024 30:39.1 10:13 9/11/21 Laguna Hills Invitational 1
76 Acelyn Dao 2024 30:43.6 10:15 9/11/21 Laguna Hills Invitational 1
77 Jeanie Nguyen 2021 31:59 10:40 9/9/17 Laguna Hills Invitational 1
78 Amadalyn Guerrero 2021 35:06 11:42 9/9/17 Laguna Hills Invitational 1
79 Sophia Gonzalez 2025 35:10 11:43 9/11/21 Laguna Hills Invitational 1
80 Emma Smith 2025 35:15 11:45 9/11/21 Laguna Hills Invitational 1
All Time Rank Runner Name Grad Year Time Pace PR Date PR Event # of
Races
Graph full race
history on course
(pick up to 7)

Note: All columns are sortable by clicking on the column heading.